EW4696 Weather Reports


time (UTC)temp
F
wind
direction
speed
knots
gust
knots
rain 1hr
in
rain 24hr
in
rain mn
in
humidity
%
barometer
mb
20260509101004 72 0 0.0 0.0 0.00 0.00 0.00 88 1012.2
20260509100504 72 0 0.0 0.0 0.00 0.00 0.00 88 1012.0
20260509100005 72 0 0.0 0.0 0.00 0.00 0.00 88 1011.8
20260509094004 72 0 0.0 0.0 0.00 0.00 0.00 88 1011.1
20260509093504 72 0 0.0 0.0 0.00 0.00 0.00 88 1011.2
20260509093004 72 0 0.0 0.0 0.00 0.00 0.00 88 1010.9
20260509092504 72 0 0.0 0.0 0.00 0.00 0.00 88 1010.9
20260509092004 72 0 0.0 0.0 0.00 0.00 0.00 88 1010.9
20260509091504 72 0 0.0 0.0 0.00 0.00 0.00 88 1010.9
20260509091004 72 0 0.0 0.0 0.00 0.00 0.00 88 1010.9
20260509090504 72 0 0.0 0.0 0.00 0.00 0.00 88 1010.9
20260509090004 72 0 0.0 1.7 0.00 0.00 0.00 88 1010.9
20260509085504 72 0 0.0 1.7 0.00 0.00 0.00 88 1011.0
20260509085004 72 0 0.0 0.0 0.00 0.00 0.00 88 1011.0
20260509084504 72 0 0.0 0.0 0.00 0.00 0.00 88 1011.0
20260509084003 72 0 0.0 0.0 0.00 0.00 0.00 88 1011.2
20260509083504 72 0 0.0 0.0 0.00 0.00 0.00 88 1011.3
20260509083004 72 0 0.0 0.0 0.00 0.00 0.00 88 1011.3
20260509082004 72 0 0.0 0.0 0.00 0.00 0.00 88 1011.4
20260509081504 72 0 0.0 0.0 0.00 0.00 0.00 88 1011.3
20260509081004 72 0 0.0 0.0 0.00 0.00 0.00 88 1011.3
20260509080504 72 0 0.0 0.0 0.00 0.00 0.00 88 1011.4
20260509080004 72 0 0.0 0.0 0.00 0.00 0.00 88 1011.4
20260509075504 72 0 0.0 0.0 0.00 0.00 0.00 88 1011.6
20260509075004 72 0 0.0 0.0 0.00 0.00 0.00 88 1011.6
20260509074504 72 0 0.0 0.0 0.00 0.00 0.00 88 1011.5
20260509074004 72 0 0.0 0.0 0.00 0.00 0.00 88 1011.4
20260509073504 73 0 0.0 0.0 0.00 0.00 0.00 89 1011.5
20260509073004 73 0 0.0 0.0 0.00 0.00 0.00 89 1011.7
20260509072504 73 0 0.0 0.9 0.00 0.00 0.00 89 1011.7
20260509072004 73 0 0.0 0.9 0.00 0.00 0.00 89 1011.7
20260509071004 73 0 0.0 0.0 0.00 0.00 0.00 89 1011.9
20260509070504 73 0 0.0 0.0 0.00 0.00 0.00 89 1011.9
20260509070004 73 0 0.0 0.0 0.00 0.00 0.00 89 1011.9
20260509065004 73 0 0.0 0.9 0.00 0.00 0.00 89 1011.6
20260509064504 73 0 0.0 0.9 0.00 0.00 0.00 89 1011.4
20260509064004 73 0 0.0 0.9 0.00 0.00 0.00 89 1011.5
20260509063504 73 0 0.0 1.7 0.00 0.00 0.00 89 1011.5
20260509063004 73 0 0.0 1.7 0.00 0.00 0.00 89 1011.6
20260509062504 73 0 0.0 0.9 0.00 0.00 0.00 89 1011.7
20260509062003 73 0 0.0 1.7 0.00 0.00 0.00 89 1011.5
20260509061504 73 0 0.0 1.7 0.00 0.00 0.00 89 1011.4
20260509061004 73 0 0.0 3.5 0.00 0.00 0.00 89 1011.2
20260509060504 73 0 0.0 3.5 0.00 0.00 0.00 89 1011.0
20260509060004 73 0 0.0 3.5 0.00 0.00 0.00 89 1011.0
20260509055004 73 0 0.0 2.6 0.00 0.00 0.00 89 1011.2
20260509054504 73 0 0.0 3.5 0.00 0.00 0.00 89 1011.2
20260509053504 73 177 0.9 4.3 0.00 0.00 0.00 89 1010.7
20260509053004 73 159 0.9 5.2 0.00 0.00 0.00 89 1010.4
20260509052503 73 164 0.9 5.2 0.00 0.00 0.00 89 1010.3
20260509052004 73 0 0.0 2.6 0.00 0.00 0.00 89 1010.4
20260509051504 73 0 0.0 5.2 0.00 0.00 0.00 89 1010.3
20260509051004 73 0 0.0 5.2 0.00 0.00 0.00 89 1010.2
20260509045004 73 0 0.0 1.7 0.00 0.00 0.00 89 1010.3
20260509044504 73 0 0.0 1.7 0.00 0.00 0.00 89 1010.3
20260509043504 73 0 0.0 0.0 0.00 0.00 0.00 89 1010.6
20260509043005 73 0 0.0 0.9 0.00 0.00 0.00 89 1010.6
20260509042504 73 0 0.0 2.6 0.00 0.00 0.00 89 1010.6
20260509042004 73 0 0.0 2.6 0.00 0.00 0.00 89 1010.8
20260509041504 73 0 0.0 0.9 0.00 0.00 0.00 89 1010.9
20260509040504 73 0 0.0 1.7 0.00 0.00 0.00 89 1010.9
20260509040004 73 0 0.0 1.7 0.00 0.00 0.00 89 1010.9
20260509035504 73 0 0.0 2.6 0.00 0.00 0.00 89 1010.8
20260509035004 73 0 0.0 5.2 0.00 0.00 0.00 89 1010.7
20260509034504 73 0 0.0 5.2 0.00 0.00 0.00 89 1010.6
20260509034004 73 0 0.0 1.7 0.00 0.00 0.00 89 1010.6
20260509033504 73 0 0.0 1.7 0.00 0.00 0.00 89 1010.5
20260509033004 72 0 0.0 0.0 0.00 0.00 0.00 89 1010.5
20260509032503 72 0 0.0 0.0 0.00 0.00 0.00 89 1010.5
20260509032004 72 0 0.0 0.0 0.00 0.00 0.00 89 1010.5
20260509030004 73 0 0.0 0.0 0.00 0.00 0.00 88 1010.5
20260509025504 73 0 0.0 0.9 0.00 0.00 0.00 88 1010.5
20260509025004 73 0 0.0 0.9 0.00 0.00 0.00 88 1010.4
20260509024503 74 0 0.0 0.9 0.00 0.00 0.00 88 1010.3
20260509024004 74 0 0.0 0.9 0.00 0.00 0.00 88 1010.2
20260509023504 74 0 0.0 0.9 0.00 0.00 0.00 87 1010.2
20260509023004 74 0 0.0 1.7 0.00 0.00 0.00 87 1010.1
20260509022503 74 0 0.0 1.7 0.00 0.00 0.00 87 1010.0
20260509022004 74 0 0.0 0.9 0.00 0.00 0.00 87 1010.1
20260509021504 74 0 0.0 1.7 0.00 0.00 0.00 87 1010.0
20260509020503 75 0 0.0 1.7 0.00 0.00 0.00 87 1009.7
20260509020004 75 0 0.0 1.7 0.00 0.00 0.00 86 1009.6
20260509015504 75 0 0.0 2.6 0.00 0.00 0.00 86 1009.6
20260509015004 75 0 0.0 3.5 0.00 0.00 0.00 86 1009.6
20260509014504 75 0 0.0 3.5 0.00 0.00 0.00 86 1009.5
20260509014004 76 134 0.9 3.5 0.00 0.00 0.00 86 1009.5
20260509013504 76 0 0.0 1.7 0.00 0.00 0.00 85 1009.4
20260509013003 76 0 0.0 1.7 0.00 0.00 0.00 85 1009.3
20260509012504 76 0 0.0 1.7 0.00 0.00 0.00 85 1009.4
20260509012004 76 0 0.0 2.6 0.00 0.00 0.00 85 1009.4
20260509011504 76 0 0.0 2.6 0.00 0.00 0.00 84 1009.4
20260509011004 77 0 0.0 2.6 0.00 0.00 0.00 84 1009.5
20260509010504 77 0 0.0 2.6 0.00 0.00 0.00 84 1009.4
20260509005504 77 0 0.0 1.7 0.00 0.00 0.00 83 1009.4
20260509005003 77 0 0.0 1.7 0.00 0.00 0.00 82 1009.4
20260509004004 77 0 0.0 1.7 0.00 0.00 0.00 82 1009.3
20260509003504 77 0 0.0 1.7 0.00 0.00 0.00 81 1009.4
20260509003004 77 0 0.0 2.6 0.00 0.00 0.00 81 1009.4
20260509002504 77 0 0.0 2.6 0.00 0.00 0.00 81 1009.4
20260509000504 78 0 0.0 0.9 0.00 0.00 0.00 81 1009.5
20260509000004 78 0 0.0 0.9 0.00 0.00 0.00 81 1009.4
20260508235504 78 0 0.0 0.9 0.00 0.00 0.00 80 1009.4
20260508235004 78 0 0.0 0.9 0.00 0.00 0.00 80 1009.5
20260508234504 78 0 0.0 0.9 0.00 0.00 0.00 80 1009.5
20260508234004 78 0 0.0 1.7 0.00 0.00 0.00 80 1009.4
20260508233004 78 0 0.0 2.6 0.00 0.00 0.00 80 1009.5
20260508232504 78 131 0.9 2.6 0.00 0.00 0.00 79 1009.4
20260508232004 78 0 0.0 2.6 0.00 0.00 0.00 79 1009.4
20260508231504 78 0 0.0 2.6 0.00 0.00 0.00 79 1009.5
20260508231003 79 0 0.0 2.6 0.00 0.00 0.00 79 1009.5
20260508230004 79 138 0.9 3.5 0.00 0.00 0.00 78 1009.4
20260508224504 79 0 0.0 1.7 0.00 0.00 0.00 77 1009.5
20260508224004 80 131 0.9 2.6 0.00 0.00 0.00 77 1009.5
20260508223504 80 130 0.9 2.6 0.00 0.00 0.00 76 1009.5
20260508223004 80 129 0.9 3.5 0.00 0.00 0.00 75 1009.4
20260508222504 81 129 0.9 3.5 0.00 0.00 0.00 74 1009.5
20260508222004 81 143 0.9 6.1 0.00 0.00 0.00 74 1009.5
20260508221503 81 168 0.9 6.1 0.00 0.00 0.00 75 1009.5
20260508221004 81 143 0.9 4.3 0.00 0.00 0.00 75 1009.5
20260508220504 81 96 0.9 2.6 0.00 0.00 0.00 74 1009.6
20260508220004 81 81 1.7 5.2 0.00 0.00 0.00 76 1009.5
20260508215504 81 86 1.7 5.2 0.00 0.00 0.00 75 1009.5
20260508215004 80 88 0.9 5.2 0.00 0.00 0.00 75 1009.6
20260508214504 80 81 0.9 5.2 0.00 0.00 0.00 77 1009.7
20260508213004 79 74 0.9 2.6 0.00 0.00 0.00 77 1009.8
20260508212504 79 74 0.9 4.3 0.00 0.00 0.00 77 1009.8
20260508212003 79 68 0.9 4.3 0.00 0.00 0.00 76 1010.0
20260508211504 79 85 0.9 3.5 0.00 0.00 0.00 76 1010.1
20260508211004 79 106 0.9 3.5 0.00 0.00 0.00 76 1010.1
20260508210504 79 108 0.9 3.5 0.00 0.00 0.00 76 1010.2
20260508205504 79 96 0.9 4.3 0.00 0.00 0.00 75 1010.4
20260508205004 79 96 0.9 4.3 0.00 0.00 0.00 75 1010.5
20260508204504 80 95 0.9 4.3 0.00 0.00 0.00 74 1010.6
20260508204005 80 98 0.9 2.6 0.00 0.00 0.00 74 1010.7
20260508203504 80 104 0.9 3.5 0.00 0.00 0.00 73 1010.7
20260508202503 81 103 0.9 3.5 0.00 0.00 0.00 73 1010.7
20260508202004 80 102 0.9 4.3 0.00 0.00 0.00 75 1010.8
20260508200004 78 95 0.9 2.6 0.00 0.00 0.00 77 1011.2
20260508195504 78 0 0.0 2.6 0.00 0.00 0.00 76 1011.3
20260508195004 78 95 0.9 2.6 0.00 0.00 0.00 76 1011.4
20260508194504 77 95 0.9 1.7 0.00 0.00 0.00 77 1011.4
20260508194004 77 93 0.9 4.3 0.00 0.00 0.00 76 1011.5
20260508193503 77 0 0.0 4.3 0.00 0.00 0.00 75 1011.5
20260508193004 77 86 0.9 2.6 0.00 0.00 0.00 76 1011.6
20260508192504 77 0 0.0 1.7 0.00 0.00 0.00 75 1011.6
20260508192004 78 0 0.0 1.7 0.00 0.00 0.00 74 1011.6
20260508191504 78 0 0.0 2.6 0.00 0.00 0.00 75 1011.7
20260508190504 78 87 0.9 4.3 0.00 0.00 0.00 74 1011.7
20260508190004 78 87 0.9 4.3 0.00 0.00 0.00 74 1011.7
20260508185004 78 94 1.7 5.2 0.00 0.00 0.00 74 1011.9
20260508184504 78 109 0.9 5.2 0.00 0.00 0.00 74 1011.9
20260508184004 78 109 0.9 4.3 0.00 0.00 0.00 75 1012.0
20260508183503 78 95 0.9 2.6 0.00 0.00 0.00 73 1012.1
20260508183004 78 91 0.9 2.6 0.00 0.00 0.00 74 1012.2
20260508182504 78 91 0.9 2.6 0.00 0.00 0.00 76 1012.2
20260508182004 77 90 0.9 2.6 0.00 0.00 0.00 74 1012.4
20260508181503 77 90 0.9 2.6 0.00 0.00 0.00 74 1012.5
20260508181004 77 90 0.9 2.6 0.00 0.00 0.00 77 1012.7
20260508180004 77 90 0.9 2.6 0.00 0.00 0.00 73 1012.6
20260508175004 76 90 0.9 2.6 0.00 0.00 0.00 76 1012.8
20260508174504 76 0 0.0 2.6 0.00 0.00 0.00 76 1012.7
20260508174004 75 90 0.9 2.6 0.00 0.00 0.00 77 1012.8
20260508173004 74 89 0.9 2.6 0.00 0.00 0.00 79 1012.9
20260508172503 73 89 0.9 4.3 0.00 0.00 0.00 78 1013.0
20260508172004 73 86 0.9 6.1 0.00 0.00 0.00 78 1013.0
20260508171504 72 82 0.9 6.1 0.00 0.00 0.00 77 1013.1
20260508171003 72 0 0.0 2.6 0.00 0.00 0.00 80 1013.2
20260508170504 71 0 0.0 0.9 0.00 0.00 0.00 81 1013.2
20260508170004 71 0 0.0 1.7 0.00 0.00 0.00 81 1013.2
20260508165503 70 0 0.0 1.7 0.00 0.00 0.00 82 1013.2
20260508165004 70 0 0.0 0.9 0.00 0.00 0.00 82 1013.4
20260508164504 69 0 0.0 0.9 0.00 0.00 0.00 81 1013.5
20260508164004 70 0 0.0 0.9 0.00 0.00 0.00 80 1013.6
20260508163504 70 0 0.0 0.9 0.00 0.00 0.00 81 1013.6
20260508163003 70 0 0.0 0.9 0.00 0.00 0.00 81 1013.8
20260508161504 69 0 0.0 2.6 0.00 0.00 0.00 81 1013.8
20260508161004 69 0 0.0 2.6 0.00 0.00 0.00 81 1013.9
20260508160503 69 0 0.0 0.9 0.00 0.00 0.00 82 1014.0
20260508155003 68 0 0.0 1.7 0.00 0.00 0.00 83 1014.1
20260508154004 68 0 0.0 0.0 0.00 0.00 0.00 83 1014.3
20260508153504 68 0 0.0 0.9 0.00 0.00 0.00 82 1014.3
20260508153004 67 0 0.0 1.7 0.00 0.00 0.00 82 1014.2
20260508152503 67 0 0.0 1.7 0.00 0.00 0.00 83 1014.3
20260508152004 67 0 0.0 0.9 0.00 0.00 0.00 83 1014.3
20260508151504 67 0 0.0 1.7 0.00 0.00 0.00 83 1014.2
20260508151004 66 0 0.0 1.7 0.00 0.00 0.00 83 1014.4
20260508150504 66 0 0.0 0.9 0.00 0.00 0.00 83 1014.5
20260508150005 66 0 0.0 2.6 0.00 0.00 0.00 82 1014.4
20260508145003 66 0 0.0 1.7 0.00 0.00 0.00 83 1014.2
20260508143504 65 0 0.0 2.6 0.00 0.00 0.00 84 1014.3
20260508142503 65 77 0.9 4.3 0.00 0.00 0.00 83 1014.2
20260508142004 65 0 0.0 2.6 0.00 0.00 0.00 83 1014.1
20260508141504 65 0 0.0 2.6 0.00 0.00 0.00 84 1014.1
20260508141004 64 0 0.0 1.7 0.00 0.00 0.00 85 1014.1
20260508140504 64 0 0.0 2.6 0.00 0.00 0.00 85 1014.2
20260508140004 64 75 0.9 2.6 0.00 0.00 0.00 84 1014.3
20260508135003 63 0 0.0 2.6 0.00 0.00 0.00 85 1014.3
20260508134503 63 0 0.0 1.7 0.00 0.00 0.00 85 1014.4
20260508134004 63 0 0.0 1.7 0.00 0.00 0.00 85 1014.5
20260508133004 63 0 0.0 0.9 0.00 0.00 0.00 86 1014.4
20260508131504 62 0 0.0 0.9 0.00 0.00 0.00 86 1014.8
20260508131004 62 0 0.0 0.9 0.00 0.00 0.00 86 1014.7
20260508130503 62 0 0.0 0.0 0.00 0.00 0.00 86 1014.6
20260508130004 62 0 0.0 0.0 0.00 0.00 0.00 86 1014.6
20260508125504 62 0 0.0 0.0 0.00 0.00 0.00 86 1014.6
20260508125004 62 0 0.0 0.0 0.00 0.00 0.00 86 1014.7
20260508124503 62 0 0.0 0.0 0.00 0.00 0.00 86 1014.6
20260508124004 61 0 0.0 0.9 0.00 0.00 0.00 86 1014.5
20260508123504 61 0 0.0 0.9 0.00 0.00 0.00 86 1014.6
20260508123004 61 0 0.0 0.9 0.00 0.00 0.00 86 1014.7
20260508122503 61 0 0.0 0.0 0.00 0.00 0.00 86 1014.8
20260508122004 61 0 0.0 0.0 0.00 0.00 0.00 86 1014.9
20260508121504 61 0 0.0 0.0 0.00 0.00 0.00 86 1014.9
20260508121004 61 0 0.0 0.0 0.00 0.00 0.00 86 1015.0
20260508120503 61 0 0.0 0.9 0.00 0.00 0.00 86 1015.0
20260508120004 61 0 0.0 0.9 0.00 0.00 0.00 86 1015.0
20260508115504 61 0 0.0 1.7 0.00 0.00 0.00 86 1015.1
20260508115003 61 0 0.0 1.7 0.00 0.00 0.00 86 1015.0
20260508114503 61 0 0.0 0.0 0.00 0.00 0.00 86 1015.3
20260508114004 61 0 0.0 0.0 0.00 0.00 0.00 86 1015.3
20260508113504 61 0 0.0 2.6 0.00 0.00 0.00 86 1015.1
20260508113004 61 0 0.0 2.6 0.00 0.00 0.00 86 1015.3
20260508112004 61 0 0.0 0.0 0.00 0.00 0.00 86 1015.5
20260508111504 61 0 0.0 1.7 0.00 0.00 0.00 86 1015.4
20260508111004 61 0 0.0 1.7 0.00 0.00 0.00 86 1015.1
20260508105504 61 0 0.0 1.7 0.00 0.00 0.00 86 1014.8
20260508105004 61 0 0.0 1.7 0.00 0.00 0.00 86 1014.8
20260508104504 61 0 0.0 1.7 0.00 0.00 0.00 86 1014.7
20260508103504 61 0 0.0 0.9 0.00 0.00 0.00 86 1014.7
20260508103004 61 0 0.0 0.9 0.00 0.00 0.00 86 1014.8
20260508102504 61 0 0.0 0.0 0.00 0.00 0.00 86 1014.8